Year,Month,Day,Hour,Minute,Value (Times are PST for windspeed in km/hr)
2007,03,13,00,00,12.20
2007,03,13,00,01,16.40
2007,03,13,00,02,5.10
2007,03,13,00,03,4.30
2007,03,13,00,04,7.60
2007,03,13,00,05,13.20
2007,03,13,00,06,11.00
2007,03,13,00,07,6.90
2007,03,13,00,08,12.70
2007,03,13,00,09,7.40
2007,03,13,00,10,10.20
2007,03,13,00,11,9.50
2007,03,13,00,12,9.50
2007,03,13,00,13,6.90
2007,03,13,00,14,10.30
2007,03,13,00,15,8.20
2007,03,13,00,16,7.10
2007,03,13,00,17,8.40
2007,03,13,00,18,8.80
2007,03,13,00,19,11.60
2007,03,13,00,20,11.30
2007,03,13,00,21,9.70
2007,03,13,00,22,10.50
2007,03,13,00,23,12.70
2007,03,13,00,24,11.10
2007,03,13,00,25,7.70
2007,03,13,00,26,8.30
2007,03,13,00,27,8.60
2007,03,13,00,28,8.90
2007,03,13,00,29,6.40
2007,03,13,00,30,9.70
2007,03,13,00,31,10.40
2007,03,13,00,32,10.80
2007,03,13,00,33,12.00
2007,03,13,00,34,11.80
2007,03,13,00,35,13.20
2007,03,13,00,36,13.80
2007,03,13,00,37,13.00
2007,03,13,00,38,11.80
2007,03,13,00,39,11.30
2007,03,13,00,40,12.20
2007,03,13,00,41,9.80
2007,03,13,00,42,8.80
2007,03,13,00,43,9.60
2007,03,13,00,44,10.60
2007,03,13,00,45,9.10
2007,03,13,00,46,10.00
2007,03,13,00,47,10.90
2007,03,13,00,48,11.90
2007,03,13,00,49,9.80
2007,03,13,00,50,10.50
2007,03,13,00,51,11.30
2007,03,13,00,52,12.80
2007,03,13,00,53,12.30
2007,03,13,00,54,9.10
2007,03,13,00,55,9.70
2007,03,13,00,56,10.70
2007,03,13,00,57,12.70
2007,03,13,00,58,12.60
2007,03,13,00,59,13.90
2007,03,13,01,00,8.90
2007,03,13,01,01,7.70
2007,03,13,01,02,9.10
2007,03,13,01,03,9.60
2007,03,13,01,04,7.00
2007,03,13,01,05,9.30
2007,03,13,01,06,8.60
2007,03,13,01,07,8.90
2007,03,13,01,08,7.20
2007,03,13,01,09,5.20
2007,03,13,01,10,3.30
2007,03,13,01,11,5.00
2007,03,13,01,12,7.50
2007,03,13,01,13,7.50
2007,03,13,01,14,9.70
2007,03,13,01,15,5.20
2007,03,13,01,16,4.80
2007,03,13,01,17,4.80
2007,03,13,01,18,7.00
2007,03,13,01,19,6.20
2007,03,13,01,20,6.30
2007,03,13,01,21,6.30
2007,03,13,01,22,7.60
2007,03,13,01,23,5.00
2007,03,13,01,24,12.40
2007,03,13,01,25,7.70
2007,03,13,01,26,4.00
2007,03,13,01,27,6.40
2007,03,13,01,28,4.70
2007,03,13,01,29,4.50
2007,03,13,01,30,5.80
2007,03,13,01,31,5.50
2007,03,13,01,32,6.50
2007,03,13,01,33,9.30
2007,03,13,01,34,9.10
2007,03,13,01,35,8.00
2007,03,13,01,36,3.70
2007,03,13,01,37,5.00
2007,03,13,01,38,7.70
2007,03,13,01,39,7.80
2007,03,13,01,40,10.40
2007,03,13,01,41,8.40
2007,03,13,01,42,6.90
2007,03,13,01,43,7.90
2007,03,13,01,44,7.80
2007,03,13,01,45,7.40
2007,03,13,01,46,5.00
2007,03,13,01,47,6.20
2007,03,13,01,48,5.30
2007,03,13,01,49,3.00
2007,03,13,01,50,2.40
2007,03,13,01,51,1.40
2007,03,13,01,52,1.20
2007,03,13,01,53,2.10
2007,03,13,01,54,2.30
2007,03,13,01,55,4.40
2007,03,13,01,56,3.80
2007,03,13,01,57,2.70
2007,03,13,01,58,5.30
2007,03,13,01,59,7.40
2007,03,13,02,00,5.40
2007,03,13,02,01,3.60
2007,03,13,02,02,4.20
2007,03,13,02,03,2.90
2007,03,13,02,04,2.20
2007,03,13,02,05,2.20
2007,03,13,02,06,3.80
2007,03,13,02,07,4.80
2007,03,13,02,08,4.80
2007,03,13,02,09,4.80
2007,03,13,02,10,3.80
2007,03,13,02,11,4.80
2007,03,13,02,12,3.40
2007,03,13,02,13,3.50
2007,03,13,02,14,1.80
2007,03,13,02,15,0.90
2007,03,13,02,16,3.30
2007,03,13,02,17,3.30
2007,03,13,02,18,2.70
2007,03,13,02,19,2.60
2007,03,13,02,20,3.00
2007,03,13,02,21,1.80
2007,03,13,02,22,3.20
2007,03,13,02,23,4.50
2007,03,13,02,24,3.60
2007,03,13,02,25,4.00
2007,03,13,02,26,3.00
2007,03,13,02,27,2.90
2007,03,13,02,28,5.70
2007,03,13,02,29,4.80
2007,03,13,02,30,4.40
2007,03,13,02,31,2.90
2007,03,13,02,32,4.60
2007,03,13,02,33,6.40
2007,03,13,02,34,6.40
2007,03,13,02,35,6.40
2007,03,13,02,36,6.40
2007,03,13,02,37,6.40
2007,03,13,02,38,6.40
2007,03,13,02,39,6.40
2007,03,13,02,40,6.40
2007,03,13,02,41,6.40
2007,03,13,02,42,6.40
2007,03,13,02,43,6.40
2007,03,13,03,16,9.60
2007,03,13,03,17,11.10
2007,03,13,03,18,8.50
2007,03,13,03,19,6.60
2007,03,13,03,20,8.80
2007,03,13,03,21,7.80
2007,03,13,03,22,8.60
2007,03,13,03,23,7.80
2007,03,13,03,24,7.50
2007,03,13,03,25,7.40
2007,03,13,03,26,8.20
2007,03,13,03,27,10.20
2007,03,13,03,28,5.80
2007,03,13,03,29,7.30
2007,03,13,03,30,7.80
2007,03,13,03,31,7.70
2007,03,13,03,32,4.50
2007,03,13,03,33,6.60
2007,03,13,03,34,6.90
2007,03,13,03,35,6.50
2007,03,13,03,36,6.40
2007,03,13,03,37,4.70
2007,03,13,03,38,7.10
2007,03,13,03,39,7.00
2007,03,13,03,40,4.40
2007,03,13,03,41,7.00
2007,03,13,03,42,5.00
2007,03,13,03,43,4.20
2007,03,13,03,44,6.00
2007,03,13,03,45,5.50
2007,03,13,03,46,5.10
2007,03,13,03,47,5.70
2007,03,13,03,48,6.20
2007,03,13,03,49,7.30
2007,03,13,03,50,4.90
2007,03,13,03,51,6.20
2007,03,13,03,52,6.20
2007,03,13,03,53,6.40
2007,03,13,03,54,6.40
2007,03,13,03,55,6.40
2007,03,13,03,56,8.20
2007,03,13,03,57,11.70
2007,03,13,03,58,12.90
2007,03,13,03,59,14.40
2007,03,13,04,00,17.00
2007,03,13,04,01,14.60
2007,03,13,04,02,14.30
2007,03,13,04,03,11.30
2007,03,13,04,04,10.60
2007,03,13,04,05,13.40
2007,03,13,04,06,11.70
2007,03,13,04,07,10.40
2007,03,13,04,08,9.50
2007,03,13,04,09,12.50
2007,03,13,04,10,12.10
2007,03,13,04,11,10.30
2007,03,13,04,12,9.50
2007,03,13,04,13,10.70
2007,03,13,04,14,13.40
2007,03,13,04,15,13.40
2007,03,13,04,16,14.20
2007,03,13,04,17,16.70
2007,03,13,04,18,16.20
2007,03,13,04,19,16.90
2007,03,13,04,20,17.70
2007,03,13,04,21,16.50
2007,03,13,04,22,17.80
2007,03,13,04,23,19.70
2007,03,13,04,24,17.40
2007,03,13,04,25,19.90
2007,03,13,04,26,16.40
2007,03,13,04,27,12.80
2007,03,13,04,28,11.00
2007,03,13,04,29,16.50
2007,03,13,04,30,15.20
2007,03,13,04,31,15.50
2007,03,13,04,32,16.10
2007,03,13,04,33,16.10
2007,03,13,04,34,12.70
2007,03,13,04,35,13.70
2007,03,13,04,36,10.60
2007,03,13,04,37,12.50
2007,03,13,04,38,15.80
2007,03,13,04,39,15.20
2007,03,13,04,40,15.40
2007,03,13,04,41,16.10
2007,03,13,04,42,16.10
2007,03,13,04,43,14.10
2007,03,13,04,44,12.30
2007,03,13,04,45,14.60
2007,03,13,04,46,12.70
2007,03,13,04,47,12.60
2007,03,13,04,48,15.50
2007,03,13,04,49,10.70
2007,03,13,04,50,10.30
2007,03,13,04,51,9.20
2007,03,13,04,52,7.90
2007,03,13,04,53,12.90
2007,03,13,04,54,10.20
2007,03,13,04,55,11.80
2007,03,13,04,56,9.40
2007,03,13,04,57,10.00
2007,03,13,04,58,7.20
2007,03,13,04,59,6.40
2007,03,13,05,00,6.20
2007,03,13,05,01,6.20
2007,03,13,05,02,7.20
2007,03,13,05,03,5.90
2007,03,13,05,04,11.60
2007,03,13,05,05,10.40
2007,03,13,05,06,5.10
2007,03,13,05,07,4.80
2007,03,13,05,08,4.80
2007,03,13,05,09,4.80
2007,03,13,05,10,4.80
2007,03,13,05,11,5.20
2007,03,13,05,12,5.20
2007,03,13,05,13,5.00
2007,03,13,05,14,3.40
2007,03,13,05,15,2.50
2007,03,13,05,16,0.00
2007,03,13,05,17,0.00
2007,03,13,05,18,0.10
2007,03,13,05,19,0.00
2007,03,13,05,20,0.00
2007,03,13,05,21,0.60
2007,03,13,05,22,0.10
2007,03,13,05,23,0.00
2007,03,13,05,24,0.00
2007,03,13,05,25,0.10
2007,03,13,05,26,0.50
2007,03,13,05,27,1.10
2007,03,13,05,28,0.50
2007,03,13,05,29,1.60
2007,03,13,05,30,1.60
2007,03,13,05,31,1.60
2007,03,13,05,32,0.50
2007,03,13,05,33,0.60
2007,03,13,05,34,0.10
2007,03,13,05,35,0.00
2007,03,13,05,36,0.00
2007,03,13,05,37,0.00
2007,03,13,05,38,0.00
2007,03,13,05,39,0.60
2007,03,13,05,40,1.20
2007,03,13,05,41,1.40
2007,03,13,05,42,0.90
2007,03,13,05,43,1.30
2007,03,13,05,44,2.60
2007,03,13,05,45,2.30
2007,03,13,05,46,1.30
2007,03,13,05,47,1.30
2007,03,13,05,48,2.30
2007,03,13,05,49,2.30
2007,03,13,05,50,2.20
2007,03,13,05,51,2.60
2007,03,13,05,52,3.10
2007,03,13,05,53,3.30
2007,03,13,05,54,3.30
2007,03,13,05,55,3.40
2007,03,13,05,56,4.60
2007,03,13,05,57,3.70
2007,03,13,05,58,3.90
2007,03,13,05,59,4.10
2007,03,13,06,00,3.60
2007,03,13,06,01,2.80
2007,03,13,06,02,2.40
2007,03,13,06,03,2.20
2007,03,13,06,04,3.90
2007,03,13,06,05,4.10
2007,03,13,06,06,1.90
2007,03,13,06,07,0.70
2007,03,13,06,08,0.80
2007,03,13,06,09,0.10
2007,03,13,06,10,2.00
2007,03,13,06,11,2.10
2007,03,13,06,12,6.20
2007,03,13,06,13,3.60
2007,03,13,06,14,3.20
2007,03,13,06,15,2.40
2007,03,13,06,16,3.50
2007,03,13,06,17,2.50
2007,03,13,06,18,2.60
2007,03,13,06,19,4.80
2007,03,13,06,20,4.80
2007,03,13,06,21,6.30
2007,03,13,06,22,5.10
2007,03,13,06,23,6.20
2007,03,13,06,24,6.10
2007,03,13,06,25,6.80
2007,03,13,06,26,6.00
2007,03,13,06,27,4.50
2007,03,13,06,28,6.40
2007,03,13,06,29,6.40
2007,03,13,06,30,5.30
2007,03,13,06,31,1.60
2007,03,13,06,32,2.90
2007,03,13,06,33,3.30
2007,03,13,06,34,2.70
2007,03,13,06,35,3.40
2007,03,13,06,36,3.60
2007,03,13,06,37,6.20
2007,03,13,06,38,6.60
2007,03,13,06,39,5.10
2007,03,13,06,40,3.60
2007,03,13,06,41,4.60
2007,03,13,06,42,3.60
2007,03,13,06,43,4.10
2007,03,13,06,44,5.00
2007,03,13,06,45,5.80
2007,03,13,06,46,5.30
2007,03,13,06,47,4.60
2007,03,13,06,48,6.20
2007,03,13,06,49,6.00
2007,03,13,06,50,2.80
2007,03,13,06,51,2.60
2007,03,13,06,52,3.10
2007,03,13,06,53,3.30
2007,03,13,06,54,4.60
2007,03,13,06,55,5.60
2007,03,13,06,56,2.70
2007,03,13,06,57,3.30
2007,03,13,06,58,3.20
2007,03,13,06,59,3.20
2007,03,13,07,00,2.90
2007,03,13,07,01,1.20
2007,03,13,07,02,3.20
2007,03,13,07,03,4.20
2007,03,13,07,04,0.80
2007,03,13,07,05,2.10
2007,03,13,07,06,2.90
2007,03,13,07,07,2.90
2007,03,13,07,08,2.30
2007,03,13,07,09,2.40
2007,03,13,07,10,2.90
2007,03,13,07,11,3.20
2007,03,13,07,12,3.20
2007,03,13,07,13,3.70
2007,03,13,07,14,2.80
2007,03,13,07,15,2.70
2007,03,13,07,16,2.20
2007,03,13,07,17,2.80
2007,03,13,07,18,2.30
2007,03,13,07,19,3.40
2007,03,13,07,20,3.20
2007,03,13,07,21,2.30
2007,03,13,07,22,0.70
2007,03,13,07,23,2.00
2007,03,13,07,24,1.90
2007,03,13,07,25,3.20
2007,03,13,07,26,3.20
2007,03,13,07,27,0.70
2007,03,13,07,28,1.70
2007,03,13,07,29,1.10
2007,03,13,07,30,1.40
2007,03,13,07,31,2.40
2007,03,13,07,32,3.80
2007,03,13,07,33,3.00
2007,03,13,07,34,4.00
2007,03,13,07,35,4.10
2007,03,13,07,36,3.80
2007,03,13,07,37,3.40
2007,03,13,07,38,3.00
2007,03,13,07,39,3.60
2007,03,13,07,40,2.80
2007,03,13,07,41,1.90
2007,03,13,07,42,0.40
2007,03,13,07,43,0.50
2007,03,13,07,44,1.00
2007,03,13,07,45,2.10
2007,03,13,07,46,1.30
2007,03,13,07,47,0.10
2007,03,13,07,48,0.70
2007,03,13,07,49,0.00
2007,03,13,07,50,2.40
2007,03,13,07,51,2.10
2007,03,13,07,52,0.60
2007,03,13,07,53,0.80
2007,03,13,07,54,1.80
2007,03,13,07,55,2.40
2007,03,13,07,56,2.60
2007,03,13,07,57,1.70
2007,03,13,07,58,1.00
2007,03,13,07,59,0.10
2007,03,13,08,00,0.10
2007,03,13,08,01,0.40
2007,03,13,08,02,0.60
2007,03,13,08,03,1.50
2007,03,13,08,04,1.10
2007,03,13,08,05,1.80
2007,03,13,08,06,0.90
2007,03,13,08,07,1.50
2007,03,13,08,08,2.10
2007,03,13,08,09,1.90
2007,03,13,08,10,1.30
2007,03,13,08,11,0.60
2007,03,13,08,12,0.10
2007,03,13,08,13,0.70
2007,03,13,08,14,5.90
2007,03,13,08,15,9.10
2007,03,13,08,16,4.50
2007,03,13,08,17,3.40
2007,03,13,08,18,1.20
2007,03,13,08,19,5.30
2007,03,13,08,20,11.10
2007,03,13,08,21,12.30
2007,03,13,08,22,10.00
2007,03,13,08,23,2.10
2007,03,13,08,24,1.60
2007,03,13,08,25,1.60
2007,03,13,08,26,7.10
2007,03,13,08,27,7.10
2007,03,13,08,28,9.40
2007,03,13,08,29,9.20
2007,03,13,08,30,14.80
2007,03,13,08,31,8.80
2007,03,13,08,32,8.90
2007,03,13,08,33,8.10
2007,03,13,08,34,10.80
2007,03,13,08,35,8.00
2007,03,13,08,36,8.90
2007,03,13,08,37,14.50
2007,03,13,08,38,11.60
2007,03,13,08,39,13.90
2007,03,13,08,40,13.50
2007,03,13,08,41,11.90
2007,03,13,08,42,13.00
2007,03,13,08,43,10.40
2007,03,13,08,44,6.90
2007,03,13,08,45,5.20
2007,03,13,08,46,7.60
2007,03,13,08,47,6.30
2007,03,13,08,48,6.00
2007,03,13,08,49,9.20
2007,03,13,08,50,9.00
2007,03,13,08,51,11.70
2007,03,13,08,52,7.10
2007,03,13,08,53,6.20
2007,03,13,08,54,8.70
2007,03,13,08,55,7.00
2007,03,13,08,56,7.00
2007,03,13,08,57,12.10
2007,03,13,08,58,9.40
2007,03,13,08,59,9.70
2007,03,13,09,00,8.40
2007,03,13,09,01,10.30
2007,03,13,09,02,7.90
2007,03,13,09,03,7.10
2007,03,13,09,04,4.20
2007,03,13,09,05,4.60
2007,03,13,09,06,6.40
2007,03,13,09,07,4.30
2007,03,13,09,08,3.50
2007,03,13,09,09,3.90
2007,03,13,09,10,4.60
2007,03,13,09,11,4.20
2007,03,13,09,12,6.30
2007,03,13,09,13,6.50
2007,03,13,09,14,6.40
2007,03,13,09,15,6.40
2007,03,13,09,16,10.40
2007,03,13,09,17,10.10
2007,03,13,09,18,9.40
2007,03,13,09,19,7.70
2007,03,13,09,20,7.00
2007,03,13,09,21,7.60
2007,03,13,09,22,8.00
2007,03,13,09,23,11.00
2007,03,13,09,24,7.90
2007,03,13,09,25,9.00
2007,03,13,09,26,7.80
2007,03,13,09,27,10.50
2007,03,13,09,28,9.90
2007,03,13,09,29,13.00
2007,03,13,09,30,8.50
2007,03,13,09,31,6.90
2007,03,13,09,32,8.40
2007,03,13,09,33,7.30
2007,03,13,09,34,4.90
2007,03,13,09,35,5.40
2007,03,13,09,36,8.50
2007,03,13,09,37,8.30
2007,03,13,09,38,9.50
2007,03,13,09,39,7.10
2007,03,13,09,40,7.40
2007,03,13,09,41,7.30
2007,03,13,09,42,8.30
2007,03,13,09,43,12.00
2007,03,13,09,44,11.70
2007,03,13,09,45,9.00
2007,03,13,09,46,6.50
2007,03,13,09,47,9.40
2007,03,13,09,48,13.30
2007,03,13,09,49,12.00
2007,03,13,09,50,8.30
2007,03,13,09,51,7.30
2007,03,13,09,52,10.00
2007,03,13,09,53,11.30
2007,03,13,09,54,11.30
2007,03,13,09,55,10.40
2007,03,13,09,56,10.00
2007,03,13,09,57,9.30
2007,03,13,09,58,9.30
2007,03,13,09,59,11.00
2007,03,13,10,00,12.80
2007,03,13,10,01,7.40
2007,03,13,10,02,6.70
2007,03,13,10,03,4.80
2007,03,13,10,04,4.60
2007,03,13,10,05,10.60
2007,03,13,10,06,10.00
2007,03,13,10,07,7.20
2007,03,13,10,08,8.50
2007,03,13,10,09,7.20
2007,03,13,10,10,7.80
2007,03,13,10,11,5.00
2007,03,13,10,12,4.80
2007,03,13,10,13,7.70
2007,03,13,10,14,6.30
2007,03,13,10,15,6.20
2007,03,13,10,16,4.90
2007,03,13,10,17,6.10
2007,03,13,10,18,7.80
2007,03,13,10,19,6.70
2007,03,13,10,20,7.30
2007,03,13,10,21,6.10
2007,03,13,10,22,3.20
2007,03,13,10,23,4.40
2007,03,13,10,24,4.80
2007,03,13,10,25,4.90
2007,03,13,10,26,7.10
2007,03,13,10,27,5.40
2007,03,13,10,28,8.30
2007,03,13,10,29,9.10
2007,03,13,10,30,6.00
2007,03,13,10,31,6.60
2007,03,13,10,32,7.20
2007,03,13,10,33,7.30
2007,03,13,10,34,6.60
2007,03,13,10,35,6.00
2007,03,13,10,36,6.90
2007,03,13,10,37,8.30
2007,03,13,10,38,9.20
2007,03,13,10,39,8.70
2007,03,13,10,40,5.80
2007,03,13,10,41,6.50
2007,03,13,10,42,5.90
2007,03,13,10,43,7.70
2007,03,13,10,44,5.90
2007,03,13,10,45,6.50
2007,03,13,10,46,8.00
2007,03,13,10,47,7.80
2007,03,13,10,48,6.70
2007,03,13,10,49,6.40
2007,03,13,10,50,7.40
2007,03,13,10,51,5.00
2007,03,13,10,52,3.30
2007,03,13,10,53,6.70
2007,03,13,10,54,5.30
2007,03,13,10,55,6.80
2007,03,13,10,56,6.60
2007,03,13,10,57,5.70
2007,03,13,10,58,6.30
2007,03,13,10,59,4.10
2007,03,13,11,00,5.60
2007,03,13,11,01,6.20
2007,03,13,11,02,4.70
2007,03,13,11,03,9.30
2007,03,13,11,04,7.60
2007,03,13,11,05,7.10
2007,03,13,11,06,10.40
2007,03,13,11,07,6.30
2007,03,13,11,08,3.70
2007,03,13,11,09,5.20
2007,03,13,11,10,6.30
2007,03,13,11,11,4.80
2007,03,13,11,12,5.50
2007,03,13,11,13,4.40
2007,03,13,11,14,2.90
2007,03,13,11,15,2.90
2007,03,13,11,16,2.80
2007,03,13,11,17,4.00
2007,03,13,11,18,4.80
2007,03,13,11,19,4.80
2007,03,13,11,20,5.70
2007,03,13,11,21,4.80
2007,03,13,11,22,4.10
2007,03,13,11,23,10.30
2007,03,13,11,24,7.20
2007,03,13,11,25,6.40
2007,03,13,11,26,6.40
2007,03,13,11,27,6.40
2007,03,13,11,28,6.40
2007,03,13,11,29,6.10
2007,03,13,11,30,9.60
2007,03,13,11,31,6.80
2007,03,13,11,32,9.30
2007,03,13,11,33,11.60
2007,03,13,11,34,11.30
2007,03,13,11,35,5.20
2007,03,13,11,36,7.80
2007,03,13,11,37,7.90
2007,03,13,11,38,7.20
2007,03,13,11,39,7.80
2007,03,13,11,40,7.70
2007,03,13,11,41,11.60
2007,03,13,11,42,8.30
2007,03,13,11,43,8.50
2007,03,13,11,44,5.70
2007,03,13,11,45,7.10
2007,03,13,11,46,8.00
2007,03,13,11,47,3.90
2007,03,13,11,48,4.30
2007,03,13,11,49,7.90
2007,03,13,11,50,7.70
2007,03,13,11,51,8.60
2007,03,13,11,52,4.30
2007,03,13,11,53,1.80
2007,03,13,11,54,4.80
2007,03,13,11,55,6.00
2007,03,13,11,56,8.00
2007,03,13,11,57,6.20
2007,03,13,11,58,7.50
2007,03,13,11,59,9.00
2007,03,13,12,00,7.40
2007,03,13,12,01,9.00
2007,03,13,12,02,6.90
2007,03,13,12,03,5.50
2007,03,13,12,04,5.90
2007,03,13,12,05,5.50
2007,03,13,12,06,6.40
2007,03,13,12,07,5.30
2007,03,13,12,08,2.80
2007,03,13,12,09,3.70
2007,03,13,12,10,5.20
2007,03,13,12,11,6.90
2007,03,13,12,12,4.50
2007,03,13,12,13,5.00
2007,03,13,12,14,3.60
2007,03,13,12,15,5.90
2007,03,13,12,16,3.30
2007,03,13,12,17,2.90
2007,03,13,12,18,4.20
2007,03,13,12,19,3.20
2007,03,13,12,20,7.00
2007,03,13,12,21,6.10
2007,03,13,12,22,8.60
2007,03,13,12,23,7.10
2007,03,13,12,24,6.20
2007,03,13,12,25,5.40
2007,03,13,12,26,5.00
2007,03,13,12,27,4.20
2007,03,13,12,28,0.40
2007,03,13,12,29,3.00
2007,03,13,12,30,3.50
2007,03,13,12,31,4.60
2007,03,13,12,32,3.50
2007,03,13,12,33,2.90
2007,03,13,12,34,5.70
2007,03,13,12,35,5.00
2007,03,13,12,36,6.40
2007,03,13,12,37,7.50
2007,03,13,12,38,4.20
2007,03,13,12,39,7.80
2007,03,13,12,40,7.70
2007,03,13,12,41,8.00
2007,03,13,12,42,3.40
2007,03,13,12,43,3.80
2007,03,13,12,44,7.40
2007,03,13,12,45,10.60
2007,03,13,12,46,4.80
2007,03,13,12,47,9.30
2007,03,13,12,48,8.90
2007,03,13,12,49,7.10
2007,03,13,12,50,6.60
2007,03,13,12,51,6.40
2007,03,13,12,52,6.40
2007,03,13,12,53,6.40
2007,03,13,12,54,6.40
2007,03,13,12,55,6.40
2007,03,13,12,56,6.40
2007,03,13,12,57,6.40
2007,03,13,12,58,5.50
2007,03,13,12,59,4.90
2007,03,13,13,00,8.40
2007,03,13,13,01,12.90
2007,03,13,13,02,13.20
2007,03,13,13,03,12.10
2007,03,13,13,04,7.30
2007,03,13,13,05,7.50
2007,03,13,13,06,6.60
2007,03,13,13,07,2.70
2007,03,13,13,08,2.10
2007,03,13,13,09,5.60
2007,03,13,13,10,3.10
2007,03,13,13,11,4.20
2007,03,13,13,12,4.20
2007,03,13,13,13,5.00
2007,03,13,13,14,8.10
2007,03,13,13,15,7.10
2007,03,13,13,16,2.10
2007,03,13,13,17,3.90
2007,03,13,13,18,3.80
2007,03,13,13,19,1.00
2007,03,13,13,20,2.90
2007,03,13,13,21,4.60
2007,03,13,13,22,5.40
2007,03,13,13,23,6.40
2007,03,13,13,24,6.40
2007,03,13,13,25,6.40
2007,03,13,13,26,3.30
2007,03,13,13,27,2.40
2007,03,13,13,28,5.20
2007,03,13,13,29,4.50
2007,03,13,13,30,4.80
2007,03,13,13,31,3.70
2007,03,13,13,32,4.80
2007,03,13,13,33,4.40
2007,03,13,13,34,3.10
2007,03,13,13,35,1.90
2007,03,13,13,36,7.30
2007,03,13,13,37,9.50
2007,03,13,13,38,9.70
2007,03,13,13,39,6.70
2007,03,13,13,40,5.40
2007,03,13,13,41,9.30
2007,03,13,13,42,10.80
2007,03,13,13,43,7.30
2007,03,13,13,44,7.90
2007,03,13,13,45,7.50
2007,03,13,13,46,9.70
2007,03,13,13,47,13.10
2007,03,13,13,48,16.10
2007,03,13,13,49,14.20
2007,03,13,13,50,13.30
2007,03,13,13,51,8.60
2007,03,13,13,52,7.80
2007,03,13,13,53,4.50
2007,03,13,13,54,8.20
2007,03,13,13,55,3.70
2007,03,13,13,56,2.80
2007,03,13,13,57,5.20
2007,03,13,13,58,3.70
2007,03,13,13,59,2.90
2007,03,13,14,00,1.70
2007,03,13,14,01,3.80
2007,03,13,14,02,3.40
2007,03,13,14,03,4.30
2007,03,13,14,04,9.10
2007,03,13,14,05,7.20
2007,03,13,14,06,6.40
2007,03,13,14,07,5.70
2007,03,13,14,08,7.00
2007,03,13,14,09,9.10
2007,03,13,14,10,8.10
2007,03,13,14,11,8.10
2007,03,13,14,12,8.10
2007,03,13,14,13,8.10
2007,03,13,14,14,11.50
2007,03,13,14,15,23.40
2007,03,13,14,16,15.90
2007,03,13,14,17,19.20
2007,03,13,14,18,9.80
2007,03,13,14,19,14.30
2007,03,13,14,20,9.50
2007,03,13,14,21,11.50
2007,03,13,14,22,19.00
2007,03,13,14,23,17.50
2007,03,13,14,24,14.30
2007,03,13,14,25,20.00
2007,03,13,14,26,16.50
2007,03,13,14,27,8.70
2007,03,13,14,28,15.10
2007,03,13,14,29,22.90
2007,03,13,14,30,23.20
2007,03,13,14,31,17.10
2007,03,13,14,32,22.70
2007,03,13,14,33,20.00
2007,03,13,14,34,13.40
2007,03,13,14,35,23.00
2007,03,13,14,36,20.90
2007,03,13,14,37,20.70
2007,03,13,14,38,24.20
2007,03,13,14,39,23.80
2007,03,13,14,40,17.40
2007,03,13,14,41,19.50
2007,03,13,14,42,19.90
2007,03,13,14,43,16.10
2007,03,13,14,44,13.10
2007,03,13,14,45,11.50
2007,03,13,14,46,16.80
2007,03,13,14,47,14.50
2007,03,13,14,48,16.00
2007,03,13,14,49,15.00
2007,03,13,14,50,14.60
2007,03,13,14,51,12.80
2007,03,13,14,52,9.90
2007,03,13,14,53,8.80
2007,03,13,14,54,10.80
2007,03,13,14,55,14.50
2007,03,13,14,56,14.30
2007,03,13,14,57,17.70
2007,03,13,14,58,17.70
2007,03,13,14,59,17.40
2007,03,13,15,00,11.50
2007,03,13,15,01,18.20
2007,03,13,15,02,21.50
2007,03,13,15,03,20.20
2007,03,13,15,04,13.30
2007,03,13,15,05,15.50
2007,03,13,15,06,15.90
2007,03,13,15,07,11.40
2007,03,13,15,08,12.30
2007,03,13,15,09,12.20
2007,03,13,15,10,14.30
2007,03,13,15,11,12.00
2007,03,13,15,12,13.90
2007,03,13,15,13,17.00
2007,03,13,15,14,13.70
2007,03,13,15,15,18.70
2007,03,13,15,16,23.40
2007,03,13,15,17,21.10
2007,03,13,15,18,21.90
2007,03,13,15,19,19.80
2007,03,13,15,20,16.70
2007,03,13,15,21,20.90
2007,03,13,15,22,24.40
2007,03,13,15,23,23.90
2007,03,13,15,24,23.40
2007,03,13,15,25,27.50
2007,03,13,15,26,26.00
2007,03,13,15,27,17.60
2007,03,13,15,28,17.50
2007,03,13,15,29,14.30
2007,03,13,15,30,12.90
2007,03,13,15,31,19.20
2007,03,13,15,32,15.30
2007,03,13,15,33,11.10
2007,03,13,15,34,8.60
2007,03,13,15,35,9.70
2007,03,13,15,36,11.20
2007,03,13,15,37,10.20
2007,03,13,15,38,11.70
2007,03,13,15,39,8.70
2007,03,13,15,40,9.00
2007,03,13,15,41,7.90
2007,03,13,15,42,8.10
2007,03,13,15,43,8.10
2007,03,13,15,44,8.10
2007,03,13,15,45,6.70
2007,03,13,15,46,14.10
2007,03,13,15,47,12.90
2007,03,13,15,48,15.30
2007,03,13,15,49,13.30
2007,03,13,15,50,13.10
2007,03,13,15,51,6.20
2007,03,13,15,52,7.00
2007,03,13,15,53,7.50
2007,03,13,15,54,11.10
2007,03,13,15,55,10.70
2007,03,13,15,56,9.40
2007,03,13,15,57,12.80
2007,03,13,15,58,15.60
2007,03,13,15,59,10.50
2007,03,13,16,00,6.70
2007,03,13,16,01,8.20
2007,03,13,16,02,9.40
2007,03,13,16,03,12.20
2007,03,13,16,04,10.30
2007,03,13,16,05,12.50
2007,03,13,16,06,16.40
2007,03,13,16,07,12.20
2007,03,13,16,08,16.10
2007,03,13,16,09,16.10
2007,03,13,16,10,16.10
2007,03,13,16,11,16.10
2007,03,13,16,12,16.10
2007,03,13,16,13,18.70
2007,03,13,16,14,15.20
2007,03,13,16,15,12.00
2007,03,13,16,16,11.00
2007,03,13,16,17,7.60
2007,03,13,16,18,4.30
2007,03,13,16,19,6.30
2007,03,13,16,20,4.70
2007,03,13,16,21,10.30
2007,03,13,16,22,16.60
2007,03,13,16,23,13.10
2007,03,13,16,24,14.60
2007,03,13,16,25,16.10
2007,03,13,16,26,16.10
2007,03,13,16,27,16.10
2007,03,13,16,28,13.30
2007,03,13,16,29,11.10
2007,03,13,16,30,9.90
2007,03,13,16,31,13.20
2007,03,13,16,32,23.30
2007,03,13,16,33,24.20
2007,03,13,16,34,24.20
2007,03,13,16,35,24.20
2007,03,13,16,36,24.20
2007,03,13,16,37,24.20
2007,03,13,16,38,17.30
2007,03,13,16,39,8.80
2007,03,13,16,40,4.90
2007,03,13,16,41,6.30
2007,03,13,16,42,6.40
2007,03,13,16,43,6.40
2007,03,13,16,44,6.40
2007,03,13,16,45,6.40
2007,03,13,16,46,6.40
2007,03,13,16,47,6.40
2007,03,13,16,48,6.40
2007,03,13,16,49,6.40
2007,03,13,16,50,10.90
2007,03,13,16,51,15.10
2007,03,13,16,52,5.40
2007,03,13,16,53,5.40
2007,03,13,16,54,10.20
2007,03,13,16,55,11.30
2007,03,13,16,56,9.30
2007,03,13,16,57,6.30
2007,03,13,16,58,8.60
2007,03,13,16,59,8.30
2007,03,13,17,00,6.80
2007,03,13,17,01,7.10
2007,03,13,17,02,13.00
2007,03,13,17,03,20.10
2007,03,13,17,04,17.80
2007,03,13,17,05,11.30
2007,03,13,17,06,13.70
2007,03,13,17,07,14.40
2007,03,13,17,08,16.90
2007,03,13,17,09,11.80
2007,03,13,17,10,7.90
2007,03,13,17,11,8.50
2007,03,13,17,12,5.80
2007,03,13,17,13,10.40
2007,03,13,17,14,13.20
2007,03,13,17,15,11.70
2007,03,13,17,16,10.00
2007,03,13,17,17,5.00
2007,03,13,17,18,8.40
2007,03,13,17,19,10.10
2007,03,13,17,20,19.40
2007,03,13,17,21,21.10
2007,03,13,17,22,17.30
2007,03,13,17,23,19.10
2007,03,13,17,24,22.30
2007,03,13,17,25,18.80
2007,03,13,17,26,16.90
2007,03,13,17,27,16.10
2007,03,13,17,28,18.50
2007,03,13,17,29,10.30
2007,03,13,17,30,18.80
2007,03,13,17,31,13.90
2007,03,13,17,32,6.90
2007,03,13,17,33,8.60
2007,03,13,17,34,20.60
2007,03,13,17,35,18.60
2007,03,13,17,36,16.10
2007,03,13,17,37,16.10
2007,03,13,17,38,16.30
2007,03,13,17,39,21.90
2007,03,13,17,40,15.30
2007,03,13,17,41,11.80
2007,03,13,17,42,11.90
2007,03,13,17,43,16.80
2007,03,13,17,44,16.00
2007,03,13,17,45,12.70
2007,03,13,17,46,16.10
2007,03,13,17,47,16.10
2007,03,13,17,48,16.10
2007,03,13,17,49,18.80
2007,03,13,17,50,12.60
2007,03,13,17,51,18.30
2007,03,13,17,52,18.60
2007,03,13,17,53,15.60
2007,03,13,17,54,18.40
2007,03,13,17,55,22.40
2007,03,13,17,56,19.60
2007,03,13,17,57,18.10
2007,03,13,17,58,22.70
2007,03,13,17,59,32.00
2007,03,13,18,00,32.20
2007,03,13,18,01,32.20
2007,03,13,18,02,32.20
2007,03,13,18,03,21.90
2007,03,13,18,04,22.00
2007,03,13,18,05,22.20
2007,03,13,18,06,24.60
2007,03,13,18,07,16.40
2007,03,13,18,08,18.20
2007,03,13,18,09,16.90
2007,03,13,18,10,16.20
2007,03,13,18,11,13.70
2007,03,13,18,12,12.30
2007,03,13,18,13,11.60
2007,03,13,18,14,13.90
2007,03,13,18,15,13.70
2007,03,13,18,16,12.00
2007,03,13,18,17,13.70
2007,03,13,18,18,12.90
2007,03,13,18,19,13.80
2007,03,13,18,20,11.40
2007,03,13,18,21,10.10
2007,03,13,18,22,9.20
2007,03,13,18,23,11.30